Tracking 19644 objects as of 26-Apr-2019
HD Live streaming from Space Station
objects crossing your sky now

ST5-B

Track ST5-B now!
10-day predictions
ST5-B is classified as:


NORAD ID: 28981
Int'l Code: 2006-008B
Perigee: 271.7 km
Apogee: 2,753.4 km
Inclination: 105.5 °
Period: 116.1 minutes
Semi major axis: 7883 km
RCS: 0.3032 m2 (medium)
Launch date: March 22, 2006
Source: United States (US)
Launch site: Pegasus launched from Western Range Air Space (WRAS)
aabbcc
Your satellite tracking list
Your tracking list is empty




NASA's NSSDC Master Catalog

Two Line Element Set (TLE):
1 28981U 06008B   19115.54014926 +.00012945 +32620-5 +27225-3 0  9990
2 28981 105.4818 073.3395 1573969 182.8291 176.2943 12.40288045541789
Source of the keplerian elements: AFSPC